Location: Bush Observatory
(40.2653°N, 94.3194°W)
Time: 05:01:51
(UTC-05:00)

Daily predictions for brighter satellites

Satellite Brightness Start Highest point End
(mag) Time Altitude Azimuth Time Altitude Azimuth Time Altitude Azimuth
ATLAS 2AS CENTAUR R/B 4.4 02:58:46 31° N 02:58:46 31° N 03:03:02 10° NNE
USA 215 4.2 03:41:07 10° ESE 03:45:10 39° E 03:45:10 39° E
CZ-2D R/B 4.1 03:42:46 10° NNE 03:44:44 23° NNE 03:44:44 23° NNE
SL-16 R/B 4.1 03:50:54 10° N 03:55:41 27° NE 04:00:24 10° ESE
NOSS 3-2 (C) 4.1 04:04:00 66° ESE 04:04:00 66° ESE 04:10:56 10° SE
Resurs 1-4 Rocket 3.8 03:58:01 10° NNE 04:00:21 27° NNE 04:00:21 27° NNE
Cosmos 2227 Rocket 3.4 04:07:34 39° NE 04:07:34 39° NE 04:11:04 10° NNE
Cosmos 2297 Rocket 3.0 04:15:34 48° NE 04:15:34 48° NE 04:19:47 10° NNE
Cosmos 1727 Rocket 4.1 04:22:12 71° ENE 04:22:12 71° ENE 04:28:07 10° N
NOSS 3-4 (A) 3.9 04:26:56 56° N 04:26:56 56° N 04:32:23 10° NNE
NOSS 3-4 (C) 3.8 04:27:01 56° N 04:27:01 56° N 04:32:30 10° NNE
ARIANE 5 R/B 4.4 04:22:56 10° N 04:24:33 20° N 04:24:33 20° N
FALCON 9 R/B 4.1 04:28:31 24° SSE 04:30:38 28° SE 04:42:36 10° E
RESURS DK-1 4.4 04:44:07 22° NNE 04:44:07 22° NNE 04:45:42 10° NNE
Cosmos 2082 4.2 04:49:11 45° NNW 04:49:11 45° NNW 04:53:32 10° NNE
Cosmos 2344 4.1 04:47:36 42° WNW 04:48:40 44° NW 04:57:11 10° NNE
SL-16 R/B 4.5 04:55:12 14° NW 04:55:12 14° NW 04:56:07 10° NNW
Cosmos 1153 Rocket 4.4 04:46:13 10° N 04:52:35 78° W 04:54:45 44° S
ADEOS II 3.8 04:50:24 10° NE 04:55:02 31° E 04:59:38 10° SSE
Cosmos 1339 Rocket 4.4 04:56:30 64° WSW 04:57:13 70° W 05:03:38 10° N
PAYLOAD B 4.3 04:56:04 10° NNE 05:01:35 76° ESE 05:04:02 34° S
Lacrosse 5 2.9 05:03:21 32° NNW 05:03:21 32° NNW 05:07:31 10° NNE
Cosmos 1726 Rocket 4.4 05:02:12 10° N 05:05:02 40° N 05:05:02 40° N
Okean O Rocket 1.8 05:02:13 10° N 05:05:58 62° N 05:05:58 62° N
Cosmos 2298 Rocket 3.9 05:10:34 57° SSW 05:11:40 82° WNW 05:17:01 10° NNE
ATLAS 5 CENTAUR R/B 3.7 05:15:05 24° SSW 05:15:05 24° SSW 05:17:54 10° S
Meteor 1-15 Rocket 4.2 05:07:49 10° N 05:13:26 85° E 05:19:05 10° S
CZ-4B R/B 3.1 05:13:31 10° NNE 05:18:58 81° WNW 05:22:01 28° SSW
Cosmos 724 4.3 05:14:16 10° NW 05:20:28 66° WSW 05:26:36 10° SSE
Cosmos 1892 Rocket 3.6 05:20:37 61° WNW 05:20:37 61° WNW 05:24:57 10° N
OAO 2 Rocket 4.3 05:20:39 33° SSW 05:21:53 38° SSE 05:26:46 10° E
PSLV R/B 4.0 05:18:09 10° NNE 05:22:27 60° E 05:26:17 12° S
Cosmos 2150 Rocket 3.8 05:23:29 44° SW 05:25:03 71° WNW 05:30:13 10° NNE
Thor Agena Rocket 3.6 05:20:12 10° SSE 05:25:30 83° ENE 05:30:49 10° NNW
CZ-2D R/B 3.8 05:24:00 10° NNW 05:26:03 17° NW 05:26:03 17° NW
Cosmos 2228 3.0 05:23:30 10° N 05:27:56 87° E 05:32:17 10° S
Cosmos 1174 4.5 05:28:42 19° N 05:30:35 41° ENE 05:33:47 10° SE
USA 215 3.7 05:24:42 10° SSE 05:30:42 38° SW 05:32:34 32° W
Meteor 2-4 Rocket 4.0 05:30:18 36° WSW 05:32:11 48° WNW 05:37:56 10° N
ADEOS Rocket 3.1 05:26:11 10° NNE 05:33:16 84° WNW 05:39:32 10° SSW
Cosmos 2100 Rocket 4.0 05:27:15 10° NNW 05:33:24 59° W 05:39:33 10° S
CZ-4B R/B 3.3 05:32:39 10° N 05:36:57 49° WNW 05:38:04 40° WSW
OPS 6432 4.4 05:37:37 54° NW 05:37:37 54° NW 05:40:29 10° NNE
Cosmos 1802 Rocket 3.8 05:31:19 10° NNW 05:37:27 69° W 05:43:31 10° S
IRS-1C Rocket 4.5 05:32:50 10° N 05:37:47 42° WNW 05:39:22 34° WSW
Cosmos 2061 Rocket 4.0 05:33:17 10° NNW 05:39:29 60° W 05:45:44 10° S
SL-16 R/B 2.4 05:34:35 10° NW 05:39:58 45° WSW 05:45:20 10° S
CENTAUR R/B 3.1 05:33:17 10° NW 05:41:12 85° WSW 05:49:34 10° SSE
Resurs 1-4 Rocket 4.0 05:39:52 10° NNW 05:41:25 13° NW 05:41:25 13° NW
Meteor 2-9 Rocket 4.5 05:37:11 10° NNW 05:42:35 45° W 05:48:04 10° SSW
Cosmos 1812 Rocket 4.5 05:38:33 10° N 05:42:55 51° E 05:47:16 10° SSE
Cosmos 1725 Rocket 4.2 05:37:45 10° N 05:44:04 75° E 05:50:18 10° SSE
Cosmos 1898 Rocket 3.9 05:45:13 30° WSW 05:47:12 42° WNW 05:52:13 10° N
Okean 2 4.3 05:49:16 29° WNW 05:49:16 29° WNW 05:52:36 10° NNW
NOSS 2-2 (D) 3.4 05:47:43 28° SW 05:49:51 76° NW 05:54:33 10° NNE
Cosmos 2227 Rocket 3.7 05:49:24 17° WNW 05:50:04 18° NW 05:53:48 10° N
Cosmos 2098 Rocket 3.2 05:49:41 10° NNW 05:53:50 62° W 05:59:07 10° S
Tiangong 1 1.3 05:54:26 36° NW 05:55:26 58° N 05:58:26 10° E
Cosmos 1937 Rocket 3.7 05:52:57 20° SW 05:56:17 48° WNW 06:01:24 10° N
Cosmos 2297 Rocket 3.5 05:57:24 19° WNW 05:58:42 20° NW 06:02:50 10° N
DELTA 2 R/B (1) 3.5 05:56:08 24° W 05:59:34 85° S 06:05:10 10° E
Intercosmos 25 Rocket 4.5 05:57:42 10° N 06:01:27 57° E 06:07:07 10° SSE
Cosmos 2016 Rocket 4.1 05:58:31 10° NNW 06:04:36 51° W 06:10:35 10° SSW
NOSS 2-2 (C) 3.7 06:02:41 21° WSW 06:05:16 53° NW 06:09:58 10° NNE
Cosmos 2058 Rocket 4.0 06:01:52 10° NW 06:05:24 24° W 06:08:56 10° SW
NOSS 2-2 (E) 3.9 06:03:52 21° WSW 06:06:23 48° NW 06:11:08 10° NNE
NOSS 5 (C) 4.3 06:05:43 10° SSW 06:09:11 80° ESE 06:12:18 10° NE
USA 116 4.3 06:04:31 10° S 06:09:26 55° W 06:13:54 10° NNW
COSMO-SKYMED 1 3.5 06:11:14 10° SSE 06:15:26 51° ENE 06:19:40 10° N
Okean-O 3.0 06:11:21 10° N 06:15:34 44° WNW 06:19:46 10° SW
Cosmos 1825 Rocket 4.2 06:12:32 10° S 06:16:52 59° E 06:21:10 10° NNE
NOAA 6 4.2 06:11:38 10° NNE 06:16:52 78° ESE 06:22:02 10° S
Iridium 4 Rocket 4.3 06:15:16 10° SSE 06:19:55 50° E 06:24:14 10° NNE
Cosmos 1943 3.7 06:15:19 10° NNW 06:20:55 64° ENE 06:26:30 10° SE
Cosmos 2123 Rocket 4.2 06:18:11 10° SSW 06:24:07 49° WNW 06:30:06 10° N
Meteor 1-22 Rocket 4.4 06:20:29 10° N 06:26:03 81° E 06:31:49 10° SSE
SJ-6F 4.5 06:22:50 10° NNE 06:27:02 88° ESE 06:31:13 10° SSW
Cosmos 1603 3.9 06:22:16 10° NW 06:27:46 49° WSW 06:33:11 10° S
Cosmos 1626 Rocket 4.4 06:26:34 10° SW 06:30:23 29° WNW 06:34:12 10° NNW
Cosmos 2263 Rocket 2.8 06:25:35 10° S 06:31:02 59° ESE 06:36:30 10° NNE
Genesis I 4.2 06:29:23 11° WSW 06:32:46 30° NW 06:36:21 10° NNE
SL-24 R/B 3.8 06:28:47 10° N 06:32:58 84° WNW 06:36:45 10° SSW
ADEOS II 2.8 06:30:04 10° N 06:34:42 32° WNW 06:39:19 10° SW
MOS 1 Rocket 3.7 06:31:21 10° N 06:36:01 46° WNW 06:40:56 10° SW
Cosmos 1766 3.5 06:34:43 10° N 06:38:45 78° E 06:42:43 10° S
USA 129 3.1 06:39:22 10° SW 06:40:29 14° W 06:41:33 10° WNW
Meteor 1-31 Rocket 3.5 06:39:16 10° N 06:42:50 34° WNW 06:46:23 10° SW
Meteor 1-21 4.4 06:37:20 10° S 06:43:06 84° E 06:48:57 10° N
SeaSat 1 3.9 06:38:48 10° SE 06:43:23 41° ENE 06:48:00 10° NNW
Lacrosse 5 4.0 06:45:00 10° NW 06:47:22 13° NNW 06:49:45 10° NNE
COBE Rocket 4.5 06:43:37 10° N 06:47:53 33° WNW 06:52:03 10° SW
Cosmos 1953 Rocket 3.6 06:45:12 10° S 06:49:40 81° W 06:54:10 10° N
